Location: Bastrop State Park
(30.1090°N, 97.2819°W)
Time: 07:45:06
(UTC-06:00)

Daily predictions for brighter satellites

Satellite Brightness Start Highest point End
(mag) Time Altitude Azimuth Time Altitude Azimuth Time Altitude Azimuth
ATLAS 2AS CENTAUR R/B 3.8 17:43:25 10° NW 17:51:07 58° WSW 17:58:11 10° S
Orbus 7S? 4.4 17:56:42 10° S 17:59:17 20° SE 18:01:19 10° ENE
Cosmos 1624 Rocket 4.1 17:54:35 10° S 17:59:39 58° ESE 18:04:45 10° NNE
Intercosmos 25 3.7 18:01:34 10° NNE 18:04:39 37° E 18:08:35 10° SSE
Abrixas 3.3 18:02:01 10° NNW 18:04:40 30° NE 18:07:19 10° E
Cosmos 1371 Rocket 4.1 18:00:35 10° SSW 18:05:56 87° ESE 18:11:19 10° NNE
Cosmos 1484 Rocket 3.6 18:05:50 10° SE 18:08:59 27° ENE 18:12:09 10° NNE
YAOGAN 1 2.5 18:06:27 10° SSE 18:10:45 81° ENE 18:15:05 10° N
Meteor 1-19 Rocket 4.3 18:05:49 10° S 18:11:36 83° E 18:17:28 10° N
Cosmos 1821 Rocket 4.2 18:09:18 10° N 18:15:07 45° E 18:20:55 10° SSE
CORIOLIS 4.1 18:10:07 10° SSE 18:15:31 83° ENE 18:20:56 10° N
Cosmos 2369 Rocket 3.1 18:13:56 10° SSE 18:18:41 28° ESE 18:22:50 13° NE
SPOT 3 Rocket 3.8 18:13:35 10° S 18:18:45 78° WSW 18:23:56 10° NNW
COSMOS 2487 3.9 18:15:36 10° NNW 18:19:00 42° WSW 18:22:23 10° S
Meteor 2-16 Rocket 4.4 18:14:01 10° N 18:20:02 62° E 18:26:02 10° SSE
Meteor 2-21 Rocket 4.4 18:14:25 10° N 18:20:36 80° E 18:26:42 10° S
Cosmos 2058 Rocket 4.4 18:18:01 10° NNE 18:21:03 18° ENE 18:24:04 10° ESE
Timation 2 Rocket 4.3 18:19:10 10° NNW 18:26:05 86° WSW 18:32:55 10° SSE
Meteor 2-9 Rocket 4.4 18:21:32 10° N 18:26:35 41° E 18:31:33 10° SSE
ATLAS 3B CENTAUR R/B 4.5 18:01:40 10° W 18:29:15 83° S 18:37:23 14° E
Meteor 2-4 Rocket 3.6 18:26:06 10° S 18:31:29 89° E 18:36:50 10° N
Okean 2 3.5 18:27:28 10° S 18:31:31 56° E 18:35:36 10° NNE
Meteor 1-23 Rocket 4.2 18:27:08 10° S 18:32:49 78° E 18:38:28 10° N
Cosmos 1340 2.9 18:31:34 10° SSE 18:35:10 44° E 18:37:49 17° NNE
Cosmos 1452 Rocket 3.8 18:30:51 10° S 18:35:48 45° ESE 18:39:51 15° NE
Delta 2 Rocket 3.7 18:33:10 10° WNW 18:36:34 39° N 18:38:11 26° ENE
CZ-4 R/B 3.9 18:37:55 10° SSW 18:41:22 25° W 18:44:48 10° NW
Cosmos 1190 Rocket 4.2 18:36:47 10° N 18:41:46 43° ENE 18:46:41 10° SE
SKYMED 2 3.8 18:37:27 10° N 18:41:47 70° WNW 18:46:04 10° SSW
Cosmos 1943 Rocket 3.5 18:39:35 10° SE 18:43:25 19° E 18:43:25 19° E
Centaur D AC-25 4.1 18:43:31 10° WSW 18:48:22 61° SSE 19:00:00 21° E
Cosmos 1892 Rocket 3.4 18:45:17 10° S 18:49:36 87° E 18:54:00 10° N
IDEFIX/ARIANE 42P 4.4 18:47:51 10° SSW 18:52:30 33° W 18:57:10 10° NW
CZ-2C R/B 4.5 18:48:55 10° SSW 18:53:17 30° W 18:57:47 10° NW
Cosmos 1727 Rocket 3.9 18:52:47 10° S 18:58:56 64° E 19:05:02 10° NNE
Cosmos 1626 Rocket 4.4 18:55:41 10° SSE 18:58:49 31° ESE 18:58:49 31° ESE
Cosmos 1726 Rocket 3.4 18:56:24 10° N 19:00:52 78° E 19:05:18 10° S
Cosmos 1666 3.1 18:57:31 10° NNW 19:01:21 63° W 19:05:11 10° S
FALCON 9 R/B 3.4 18:45:09 10° W 19:10:11 70° N 19:13:37 36° ENE
Cosmos 1833 Rocket 4.4 19:15:00 10° NW 19:19:56 33° WSW 19:24:53 10° SSW
Cosmos 1420 Rocket 3.9 19:20:04 10° S 19:25:22 81° ESE 19:26:21 60° NNE
Delta 142 4.3 19:23:26 10° SW 19:26:57 40° S 19:26:57 40° S
NOSS 3-4 (A) 3.9 19:20:15 10° NNW 19:27:27 80° WSW 19:35:02 10° SSE
NOSS 3-4 (C) 3.9 19:20:20 10° NNW 19:27:33 81° WSW 19:35:10 10° SSE
Cosmos 407 Rocket 3.7 19:25:43 10° NNW 19:30:51 70° WSW 19:36:01 10° S
Cosmos 1066 Rocket 4.3 19:31:07 10° S 19:35:33 56° SSE 19:35:33 56° SSE
Cosmos 2263 4.3 19:31:07 10° SSW 19:36:51 77° WNW 19:38:17 52° N
OAO 2 Rocket 3.3 19:33:36 10° WSW 19:38:26 78° WSW 19:38:26 78° WSW
Cosmos 676 Rocket 4.0 19:38:30 10° NNW 19:50:11 - S 19:43:16 72° WNW
Cosmos 2369 Rocket 3.8 19:57:38 10° SW 20:02:32 30° WNW 20:04:41 23° NNW
Cosmos 1943 Rocket 3.7 20:21:32 10° SW 20:25:01 32° WSW 20:25:01 32° WSW
Centaur AC-72 4.5 20:38:45 10° SW 20:41:16 23° SSW 20:41:16 23° SSW
